Temperature
16 16 16 16 16 16 16 16 16 16 16 16 16 16 16 16 16 16 16 16 16 16 16 16 16 16 16 16 16 16 16 16 16 16 16 16 16 16 16 16 16 16 16
16 16 16 16 16 16 16 16 16 16 16 16 16 16 16 16 15 15 15 15 15 15 16 16 16 16 16 16 16 16 16 16 16 16 16 16 16 16 16 16 16 16 16
16 16 16 16 16 16 16 16 16 16 16 16 16 16 15 15 15 15 15 15 15 15 15 15 15 15 16 16 16 16 16 16 16 16 16 16 16 16 16 16 16 16 16
16 16 16 16 16 16 16 16 16 16 16 16 16 15 15 15 15 15 15 15 15 15 15 15 15 15 15 15 15 15 15 15 15 16 16 16 15 15 15 15 15 16 16
16 16 16 16 16 16 16 16 16 16 16 15 15 15 15 15 15 15 15 15 15 14 14 14 15 15 15 15 15 15 15 15 15 15 15 15 15 15 15 15 15 15 15
16 16 16 16 16 16 16 16 16 16 16 15 15 15 15 15 15 15 15 15 14 14 14 14 14 14 15 15 15 15 15 15 15 15 15 15 15 15 15 15 15 15 15
16 16 16 16 16 16 16 16 16 15 15 15 15 15 15 15 15 15 15 14 14 14 14 14 14 14 14 14 14 15 15 15 15 15 15 15 15 15 15 15 15 15 15
16 16 16 16 16 16 16 16 15 15 15 15 15 15 15 15 14 14 14 14 14 14 14 14 14 14 14 14 14 14 14 14 14 14 15 15 15 15 14 15 15 15 15
16 16 16 16 16 16 16 15 15 15 15 15 16 16 15 15 14 14 14 14 14 14 14 14 14 14 14 14 14 14 14 14 14 14 14 14 14 14 14 14 14 14 14
16 16 16 16 16 16 15 15 15 15 15 15 15 16 16 16 15 14 14 14 14 14 13 13 13 13 14 14 14 14 14 14 14 14 14 14 14 14 14 14 14 14 14
16 16 16 16 16 16 15 15 15 15 15 15 15 15 16 16 16 15 14 14 14 13 13 13 13 13 13 14 14 14 14 14 14 14 14 14 14 14 14 14 14 14 14
16 15 15 16 16 15 15 15 15 15 15 15 15 15 16 16 15 15 15 14 14 13 13 13 13 13 13 13 14 14 14 14 14 14 14 14 14 14 14 14 14 14 14
16 16 15 16 16 15 15 15 15 15 15 15 15 15 15 15 15 15 15 15 14 13 13 13 13 13 13 13 13 13 14 14 14 14 14 14 14 14 14 14 14 13 13
16 16 16 16 15 15 15 15 15 15 15 15 15 15 15 15 15 15 15 15 14 14 13 13 13 13 13 13 13 13 13 13 13 13 14 14 14 14 14 13 13 13 13
16 16 16 16 16 16 16 16 15 15 15 15 15 15 15 15 15 15 15 15 15 14 13 13 13 13 13 13 13 13 13 13 13 13 13 13 13 13 13 13 13 13 13
16 16 16 16 16 16 16 15 15 15 15 15 15 15 15 15 15 15 15 15 14 14 13 13 13 13 13 13 13 13 13 13 13 13 13 13 13 13 13 13 13 13 13
16 16 16 16 16 16 15 15 15 15 15 15 15 15 15 15 15 15 14 14 14 14 14 13 13 13 13 13 12 12 12 13 12 13 13 13 13 13 13 13 13 12 12
16 16 16 16 16 16 15 15 15 15 15 15 15 15 15 15 14 14 14 14 14 14 14 13 13 13 12 12 12 12 12 12 12 12 12 12 12 12 12 12 12 12 12
16 16 16 16 16 16 15 15 15 15 15 15 15 15 14 14 14 14 14 14 14 14 13 13 13 12 12 12 12 12 12 12 12 12 12 12 12 12 12 12 12 12 12
16 16 16 16 16 15 15 15 15 15 15 15 15 15 15 15 14 14 14 14 14 13 13 13 13 12 12 12 12 12 12 12 12 11 11 11 12 12 12 12 12 11 11
16 16 16 16 15 15 15 15 15 15 15 15 15 15 15 15 15 14 14 14 14 13 13 13 13 13 13 12 12 12 12 11 12 11 11 11 11 11 11 11 11 11 11
16 15 15 15 15 15 15 15 15 15 15 15 15 15 15 15 14 14 14 14 14 14 13 13 13 13 13 12 12 12 12 11 11 11 11 11 11 11 11 11 11 11 11
15 15 15 15 15 15 15 15 15 15 15 14 14 15 14 14 14 14 14 14 14 13 13 13 13 13 12 12 12 12 12 11 11 11 11 11 11 11 11 10 10 10 10
15 15 15 15 15 15 15 15 15 15 15 14 14 14 14 14 14 14 14 14 13 13 13 13 13 13 12 12 12 12 11 11 11 11 11 11 11 10 10 10 10 10 10
15 15 15 15 15 15 15 15 15 15 14 14 14 14 14 14 14 14 14 14 13 13 13 13 13 12 12 12 12 12 11 11 11 11 10 10 10 10 10 10 9 9 9
15 15 15 15 15 15 15 15 15 14 14 14 14 14 14 14 14 14 14 13 13 13 13 13 12 12 12 12 12 11 11 11 11 10 10 10 10 9 9 9 9 9 8
Wind_Speed
2 2 2 3 4 4 3 1 3 5 5 5 6 6 6 9 11 12 12 14 13 13 13 13 13 14 13 13 12 12 12 12 12 13 13 12 12 12 12 11 12 12 12
2 2 2 3 4 3 4 4 5 5 4 5 6 7 8 9 10 11 11 12 14 14 14 14 14 14 14 13 13 13 12 13 12 13 13 13 12 12 12 12 12 13 13
4 3 3 3 3 5 6 6 6 4 4 5 5 6 8 8 9 9 10 10 11 13 15 14 14 14 15 14 14 13 13 13 13 13 13 13 13 12 12 12 12 13 13
6 5 3 2 4 6 5 3 4 4 4 5 4 5 5 5 7 8 9 10 10 11 13 14 14 14 15 15 15 14 14 13 13 13 13 13 13 13 13 13 13 13 13
7 6 3 3 5 4 3 4 4 4 4 4 4 4 4 4 5 7 8 10 10 11 10 12 13 14 14 15 15 15 14 14 14 14 13 13 13 13 13 13 13 13 13
6 5 2 4 5 4 4 4 4 4 3 3 5 5 4 4 4 5 6 8 9 9 9 9 9 12 15 15 15 15 15 14 13 13 12 12 12 12 12 12 13 13 13
5 4 3 3 3 3 3 4 4 3 2 3 4 4 4 4 5 4 5 5 6 8 10 10 10 10 11 14 15 14 14 14 14 13 12 12 12 12 11 12 13 13 13
3 3 3 3 3 3 4 4 3 2 1 2 2 2 2 3 3 4 3 3 5 7 8 10 12 12 12 11 13 15 15 15 14 14 13 13 13 12 12 12 13 13 14
4 3 3 3 2 2 3 3 3 2 1 1 2 2 2 2 1 2 3 4 4 4 5 8 11 12 12 12 12 14 15 15 15 14 14 14 13 12 12 12 13 13 13
3 4 4 2 3 2 3 2 3 2 2 1 1 1 1 3 2 1 1 3 4 4 4 6 8 10 11 11 12 13 14 14 14 14 14 14 14 13 12 12 13 13 13
3 4 3 2 2 2 2 2 3 2 1 1 1 1 2 1 1 3 2 1 2 2 3 5 6 7 9 10 10 11 12 13 13 14 14 14 14 13 13 12 12 13 13
2 3 2 1 2 2 2 2 3 3 1 2 1 2 2 1 1 2 3 2 2 1 3 4 4 5 8 9 9 10 11 11 12 13 13 14 14 13 13 13 13 13 13
2 2 2 2 1 2 2 2 2 2 2 2 1 2 2 1 2 3 3 2 2 1 2 2 3 5 6 8 7 9 10 10 11 12 12 12 13 13 13 14 14 14 14
3 3 3 3 2 2 3 3 2 1 2 2 3 3 2 2 3 3 3 3 2 1 2 2 2 5 6 7 6 7 8 9 9 10 11 11 11 12 12 13 13 13 13
3 4 4 3 3 3 3 3 2 2 3 3 3 3 2 2 3 2 3 2 3 2 1 1 1 2 5 7 6 6 7 8 8 8 9 10 10 11 11 11 12 12 12
3 4 4 4 4 3 3 3 3 3 4 3 3 4 3 3 3 2 2 2 2 3 1 1 1 2 4 5 6 5 6 8 8 8 9 10 10 10 11 11 11 11 11
3 4 3 4 5 4 4 4 2 2 2 3 3 4 4 3 3 2 2 2 2 3 3 1 2 2 3 3 4 4 5 5 5 7 8 8 8 9 9 10 10 10 10
3 4 4 4 4 4 5 4 3 2 2 2 3 4 4 3 3 3 2 2 2 2 3 3 1 1 2 2 2 2 3 3 4 5 6 6 6 7 7 8 8 8 9
2 3 4 4 4 4 4 4 4 3 3 3 3 3 3 4 3 3 2 2 1 2 3 3 2 1 1 2 2 2 2 2 2 3 3 3 4 5 5 6 6 6 7
2 2 4 4 4 4 3 3 4 4 4 3 4 4 3 4 3 3 2 2 2 3 2 2 2 1 1 0 1 1 2 2 2 2 2 3 2 2 3 3 4 4 5
3 2 2 4 4 4 3 3 3 4 3 4 4 4 5 8 8 5 4 3 3 2 2 2 1 1 0 0 0 1 0 1 2 2 1 1 1 2 2 2 2 2 3
3 3 2 4 4 4 6 6 4 2 3 3 4 4 6 6 7 8 8 7 5 3 1 1 1 1 1 1 0 0 0 1 2 2 1 2 1 0 1 1 1 1 1
4 3 3 4 5 5 6 5 4 2 2 2 3 3 4 5 6 5 5 4 3 3 2 2 1 1 1 1 1 0 1 0 1 1 1 2 2 1 1 2 3 2 1
4 4 4 4 5 4 5 4 2 2 1 1 1 3 4 4 4 4 4 3 2 1 1 2 2 1 1 1 2 2 1 0 1 1 1 1 2 2 1 2 3 3 2
5 5 4 4 4 4 5 4 3 2 1 0 1 2 3 4 5 5 4 3 2 1 3 4 4 3 2 2 3 2 1 1 2 2 1 1 2 2 2 1 3 4 4
5 5 5 4 5 4 6 6 5 2 2 2 2 2 4 4 5 5 3 2 2 1 1 1 1 0 0 1 1 2 1 1 1 2 2 1 1 2 3 2 1 3 3
Wind_Direction
105 105 123 115 115 123 124 86 77 73 66 62 68 73 80 84 91 94 82 71 65 63 62 60 59 57 56 55 53 48 44 41 40 40 38 39 39 37 36 34 31 29 27
105 99 95 87 88 89 97 94 87 80 71 60 55 58 65 74 86 98 99 82 70 68 65 60 59 58 55 55 52 48 45 43 42 40 40 40 41 39 38 35 33 32 31
88 86 82 94 100 92 77 81 85 81 83 76 60 61 63 60 71 84 94 98 86 75 68 62 58 57 54 52 50 47 47 44 42 41 42 41 41 39 38 37 34 35 35
87 76 73 79 89 88 88 90 88 78 72 72 61 58 64 58 64 70 78 84 87 84 75 69 63 59 54 50 48 47 47 45 42 40 41 41 40 39 38 38 38 36 36
87 84 66 81 83 79 72 87 82 91 95 93 93 75 65 58 55 62 65 75 79 87 87 78 70 64 58 51 46 43 43 43 41 40 40 40 40 39 38 39 40 39 40
85 93 89 84 82 80 72 76 85 80 93 97 96 86 72 67 57 51 56 67 67 72 77 79 76 67 59 51 44 40 39 39 40 40 40 40 39 39 40 40 42 43 44
73 83 80 83 85 96 104 102 93 91 94 110 96 85 69 66 70 58 53 59 62 64 65 65 68 67 61 50 42 39 36 38 40 41 42 41 40 41 43 44 46 46 48
76 105 104 100 91 91 90 90 94 91 103 115 117 111 97 55 45 71 72 67 62 60 61 60 59 61 60 54 42 39 37 38 39 41 42 41 42 46 49 49 50 51 52
57 69 89 104 113 106 114 110 105 97 71 39 74 99 116 129 123 50 73 77 71 55 55 64 62 59 58 57 47 37 37 39 40 42 43 43 45 49 51 53 54 54 55
80 65 77 81 112 106 122 142 116 96 95 54 22 48 105 127 136 122 48 68 76 63 51 63 62 63 61 60 53 41 38 37 37 39 42 44 46 49 52 57 55 56 57
102 87 88 76 101 109 121 105 101 87 88 111 106 96 71 65 92 126 130 117 74 67 74 74 69 66 66 63 57 46 41 39 38 39 41 43 46 48 52 53 55 58 57
124 114 117 104 93 97 95 108 116 111 79 58 53 74 95 88 94 104 122 127 118 107 90 83 78 77 75 66 58 49 45 44 42 41 42 44 46 47 48 50 56 57 56
136 152 132 103 78 99 102 95 112 132 139 112 78 73 65 55 76 90 108 114 117 137 114 103 99 89 83 79 66 54 53 49 46 45 45 46 47 47 48 51 56 56 56
142 135 116 110 103 110 120 111 110 136 124 118 106 94 79 43 61 91 107 114 100 67 77 97 92 89 90 85 71 68 62 55 53 50 49 49 50 49 52 53 55 54 53
141 127 121 118 97 81 82 95 87 75 78 70 77 87 91 78 76 71 77 100 122 107 76 97 81 92 103 93 76 78 75 63 62 60 58 57 56 55 54 53 54 53 51
132 133 140 136 121 103 81 75 78 71 91 90 83 75 72 69 70 68 64 41 69 123 113 99 111 119 95 89 81 80 84 72 66 67 65 63 60 57 54 54 52 50 48
151 148 150 140 139 137 119 98 101 104 104 118 116 111 102 85 80 69 57 49 52 88 110 90 87 96 92 83 88 93 90 92 72 71 69 64 61 57 54 53 50 46 44
157 141 130 124 119 116 111 115 112 100 89 86 99 104 111 105 94 81 62 60 74 90 117 121 95 69 90 92 99 76 77 80 91 77 77 72 65 58 52 48 45 41 39
149 131 127 126 124 120 125 135 133 126 111 99 89 95 103 118 120 117 109 85 87 92 103 123 124 75 70 64 55 31 37 57 68 82 84 83 75 63 48 41 40 38 37
135 134 136 135 128 127 124 122 125 123 112 104 89 85 80 88 95 106 105 95 98 91 95 103 113 101 78 46 77 27 2 358 2 44 73 116 112 76 52 35 36 37 35
138 124 109 124 118 110 96 100 108 126 122 114 112 105 96 94 87 84 90 75 77 82 103 111 114 88 63 26 279 234 341 311 329 18 24 69 139 116 77 32 26 35 37
133 122 128 112 106 104 93 81 70 107 130 132 133 134 126 114 108 99 93 87 89 94 105 111 117 141 222 209 207 83 301 9 320 332 18 324 90 101 130 146 136 102 56
131 122 117 115 113 115 111 95 67 64 74 109 131 130 122 126 130 125 112 99 78 78 110 132 121 203 190 179 150 341 320 161 225 270 25 313 324 303 171 169 173 164 143
141 139 135 132 129 134 136 127 100 97 63 44 80 119 125 122 125 127 130 121 113 85 114 131 148 155 83 112 142 169 199 9 325 345 67 285 305 284 265 183 196 193 193
156 155 152 153 147 154 168 168 146 133 135 134 79 73 115 119 126 121 123 133 133 161 139 133 140 139 108 76 82 68 34 36 316 301 293 199 289 306 290 242 228 220 227
162 156 158 171 168 166 178 181 179 175 178 167 139 103 100 122 121 118 123 140 145 204 127 112 114 261 115 33 52 120 160 178 262 304 314 36 321 355 329 304 232 232 258
Height
1546 1547 1547 1548 1548 1549 1549 1549 1550 1551 1552 1553 1553 1553 1553 1553 1553 1553 1553 1552 1552 1551 1551 1550 1549 1549 1548 1548 1547 1546 1545 1543 1542 1540 1538 1537 1538 1537 1537 1536 1535 1534 1532
1547 1548 1548 1548 1549 1550 1550 1551 1552 1552 1553 1554 1554 1554 1554 1555 1554 1554 1554 1553 1553 1552 1551 1551 1550 1550 1549 1548 1547 1547 1545 1544 1543 1542 1540 1539 1539 1538 1537 1536 1535 1534 1532
1549 1549 1549 1550 1550 1551 1551 1552 1553 1554 1554 1555 1555 1556 1556 1556 1556 1556 1555 1554 1554 1553 1553 1552 1551 1551 1550 1549 1548 1547 1546 1545 1544 1542 1541 1540 1539 1538 1537 1537 1536 1534 1533
1550 1550 1550 1551 1552 1552 1553 1553 1554 1555 1555 1556 1556 1557 1557 1557 1557 1557 1557 1556 1555 1555 1554 1553 1553 1552 1551 1550 1549 1548 1547 1545 1544 1542 1541 1540 1539 1538 1537 1537 1536 1535 1534
1551 1551 1552 1552 1553 1553 1554 1555 1555 1556 1556 1557 1558 1558 1559 1559 1559 1559 1558 1558 1557 1556 1555 1555 1554 1553 1552 1551 1550 1548 1547 1545 1544 1543 1542 1540 1539 1538 1537 1537 1536 1535 1534
1552 1552 1553 1553 1554 1554 1555 1556 1556 1557 1558 1559 1559 1560 1560 1560 1560 1560 1560 1559 1559 1558 1557 1556 1555 1554 1553 1551 1550 1549 1547 1546 1544 1543 1541 1540 1539 1538 1537 1536 1536 1536 1535
1552 1553 1553 1554 1555 1555 1556 1557 1558 1558 1559 1560 1561 1561 1562 1562 1562 1562 1561 1561 1560 1560 1559 1558 1556 1555 1553 1552 1551 1549 1548 1546 1544 1543 1541 1539 1538 1537 1536 1536 1536 1536 1535
1553 1554 1554 1555 1556 1556 1557 1558 1559 1560 1560 1561 1562 1562 1563 1565 1564 1564 1563 1563 1562 1561 1560 1559 1558 1556 1555 1553 1551 1550 1548 1546 1544 1543 1541 1539 1536 1535 1535 1535 1536 1536 1536
1553 1554 1555 1556 1556 1557 1558 1559 1559 1560 1561 1562 1563 1563 1563 1564 1565 1566 1565 1565 1564 1563 1562 1560 1559 1557 1556 1554 1552 1550 1549 1547 1545 1544 1542 1539 1536 1535 1535 1536 1536 1537 1536
1554 1554 1555 1556 1557 1558 1559 1559 1560 1561 1561 1562 1563 1563 1564 1564 1564 1566 1567 1566 1565 1564 1563 1562 1560 1559 1557 1555 1553 1552 1550 1548 1546 1544 1542 1541 1538 1537 1536 1537 1537 1538 1537
1554 1555 1555 1556 1557 1558 1559 1560 1560 1561 1561 1562 1563 1563 1564 1564 1565 1565 1566 1567 1566 1565 1564 1563 1562 1560 1558 1556 1555 1553 1551 1549 1547 1545 1544 1542 1541 1540 1539 1539 1539 1539 1538
1554 1555 1556 1557 1558 1558 1559 1560 1560 1561 1561 1562 1562 1563 1564 1564 1565 1565 1566 1566 1566 1566 1565 1564 1563 1561 1560 1558 1556 1554 1552 1550 1548 1547 1545 1544 1543 1542 1541 1540 1540 1540 1539
1555 1555 1556 1557 1557 1558 1559 1560 1560 1561 1562 1562 1563 1563 1564 1564 1565 1565 1565 1566 1566 1567 1566 1565 1564 1562 1561 1559 1557 1555 1553 1552 1550 1548 1547 1546 1545 1544 1543 1542 1541 1541 1540
1555 1556 1556 1557 1558 1558 1559 1560 1561 1561 1562 1562 1563 1563 1564 1564 1565 1565 1566 1566 1566 1567 1567 1566 1565 1564 1562 1560 1558 1556 1555 1553 1551 1550 1548 1547 1546 1545 1544 1543 1543 1542 1541
1555 1555 1556 1557 1558 1558 1559 1560 1560 1561 1562 1562 1563 1563 1564 1564 1565 1565 1565 1566 1566 1566 1567 1567 1566 1565 1563 1561 1559 1558 1556 1554 1553 1551 1550 1549 1548 1547 1546 1545 1544 1543 1542
1555 1555 1556 1557 1558 1558 1559 1560 1560 1561 1562 1562 1563 1563 1564 1564 1564 1565 1565 1566 1566 1566 1566 1567 1566 1565 1564 1562 1561 1559 1557 1556 1554 1553 1551 1550 1549 1548 1547 1546 1545 1545 1544
1554 1555 1556 1557 1558 1558 1559 1559 1560 1561 1562 1562 1563 1563 1564 1564 1564 1565 1565 1565 1566 1566 1566 1567 1567 1566 1565 1563 1562 1560 1559 1557 1556 1554 1553 1552 1551 1550 1549 1548 1547 1546 1545
1554 1555 1556 1557 1557 1558 1559 1559 1560 1561 1561 1562 1563 1563 1563 1564 1564 1565 1565 1565 1566 1566 1566 1566 1566 1566 1565 1564 1563 1561 1560 1559 1557 1556 1555 1554 1552 1551 1550 1549 1548 1547 1545
1553 1554 1555 1556 1557 1558 1559 1559 1560 1561 1561 1562 1562 1563 1563 1564 1564 1565 1565 1565 1565 1566 1566 1566 1566 1566 1566 1565 1564 1563 1561 1560 1559 1557 1556 1555 1554 1552 1551 1550 1549 1547 1546
1552 1553 1554 1555 1556 1557 1558 1559 1560 1560 1561 1561 1562 1562 1563 1564 1564 1564 1565 1565 1565 1565 1566 1566 1566 1566 1565 1565 1564 1563 1562 1561 1559 1558 1557 1555 1554 1553 1552 1551 1549 1548 1546
1551 1552 1553 1554 1556 1557 1558 1559 1559 1560 1561 1561 1562 1562 1563 1563 1564 1564 1564 1565 1565 1565 1565 1565 1565 1565 1565 1564 1564 1563 1562 1561 1560 1559 1557 1556 1554 1553 1552 1551 1549 1548 1546
1550 1551 1552 1553 1554 1555 1557 1558 1559 1559 1560 1561 1561 1562 1562 1563 1564 1564 1564 1564 1565 1565 1565 1565 1565 1564 1564 1564 1563 1563 1562 1560 1559 1559 1558 1556 1555 1553 1552 1550 1549 1547 1546
1548 1549 1550 1552 1553 1554 1556 1557 1558 1559 1560 1560 1561 1562 1562 1563 1563 1563 1564 1564 1564 1564 1565 1564 1564 1564 1563 1563 1562 1562 1561 1560 1559 1558 1557 1555 1554 1552 1551 1550 1548 1546 1545
1546 1548 1549 1551 1552 1553 1555 1556 1557 1558 1559 1560 1560 1561 1562 1562 1562 1563 1563 1563 1563 1563 1563 1563 1563 1563 1563 1562 1562 1561 1560 1559 1558 1557 1556 1554 1552 1551 1550 1549 1547 1545 1544
1544 1546 1547 1549 1550 1552 1553 1554 1555 1557 1558 1559 1560 1560 1561 1561 1562 1562 1562 1562 1562 1562 1563 1562 1562 1562 1561 1561 1560 1560 1558 1557 1556 1555 1554 1553 1551 1549 1548 1547 1545 1544 1542
1542 1544 1545 1547 1548 1550 1551 1553 1554 1555 1556 1557 1558 1559 1559 1560 1560 1561 1561 1561 1561 1561 1561 1561 1561 1560 1560 1559 1559 1558 1557 1556 1554 1553 1552 1551 1549 1547 1545 1544 1543 1541 1539